Content
SEND FEEDBACK

Daily
Averages
Monthly
Summary
United States of America

BROOKPORT, ILLINOIS


Home > North America > United States > Illinois
Elevation: 330 feet     Latitude: 37 07N     Longitude: 088 39W

WEATHER
 
SELECT A DAY
Number of Records: 213,876;   Date Range: 1/1/95 - 12/17/14
 
SHARE

PRINT THIS DATA

[ ← Previous Day ]
WEATHER ALMANAC - JANUARY 31, 2013
[ Next Day → ]
[ °C ]   °F
Weather ElementAverageHighLow
Temperature32.4 °F41 °F (1:53 pm)19.4 °F (11:53 pm)
Dewpoint23.4 °F32 °F (5:53 pm)6.8 °F (11:53 pm)
Humidity70.7 %93 % (6:01 pm)53 % (1:53 pm)
Barometer30.11 in30.34 in (11:53 pm)29.97 in (1:53 am)
Wind Speed13.8 mph19.6 mph (6:37 pm)
Wind Gust28.8 mph (8:03 pm)
Weather ElementAverage
Visibility8 mi
Wind DirectionWNW (283.8 °)

Weather ElementTotal
Precipitation0.09 in
Heating Degree Days34.8 (Base 65)
Averaged from 32 records on January 31, 2013
WEATHER CONDITIONS BREAKOUT
WIND DIRECTION BREAKOUT
WEATHER BY HOUR - JANUARY 31, 2013
[ °C ]   °F
Local TimeTemperatureDewpointHumidityBarometerVisibilityWind DirectionWind SpeedGust SpeedPrecipitationEventsConditions
1:53 AM30.9 °F18.0 °F59 %29.97 in10.0 miWNW (290°)12.7 mph21.9 mphOvercast
2:53 AM30.9 °F18.0 °F59 %29.98 in10.0 miWest (280°)15.0 mph19.6 mphOvercast
3:53 AM30.9 °F19.0 °F61 %29.98 in10.0 miWest (280°)8.1 mphOvercast
4:53 AM30.9 °F19.9 °F64 %30.00 in10.0 miWest (270°)13.8 mphOvercast
5:53 AM30.0 °F19.0 °F64 %30.02 in10.0 miWNW (300°)9.2 mphOvercast
6:53 AM28.9 °F19.0 °F67 %30.05 in10.0 miWest (260°)10.4 mphMostly Cloudy
7:53 AM30.0 °F21.0 °F69 %30.08 in10.0 miWSW (250°)9.2 mphOvercast
9:53 AM33.1 °F21.9 °F64 %30.10 in10.0 miWSW (240°)18.4 mphOvercast
10:53 AM35.1 °F23.0 °F61 %30.12 in10.0 miWSW (240°)16.1 mphOvercast
11:53 AM37.0 °F24.1 °F59 %30.10 in10.0 miSW (230°)15.0 mphClear
12:53 PM39.0 °F25.0 °F57 %30.06 in10.0 miWSW (250°)13.8 mph20.7 mphClear
1:53 PM41.0 °F25.0 °F53 %30.04 in10.0 miWSW (250°)17.3 mphMostly Cloudy
2:53 PM39.9 °F25.0 °F55 %30.04 in10.0 miWest (260°)16.1 mph21.9 mphOvercast
3:53 PM39.9 °F27.0 °F60 %30.04 in10.0 miWSW (240°)15.0 mph24.2 mphScattered Clouds
4:53 PM39.9 °F28.0 °F63 %30.05 in10.0 miWest (280°)12.7 mphOvercast
5:53 PM35.1 °F32.0 °F89 %30.09 in5.0 miWNW (300°)11.5 mph0.00 inSnowLight Snow
6:01 PM33.8 °F32.0 °F93 %30.08 in3.0 miWNW (290°)10.4 mph0.00 inSnowLight Snow
6:06 PM33.8 °F32.0 °F93 %30.09 in2.5 miWNW (300°)15.0 mph24.2 mph0.00 inSnowLight Snow
6:19 PM33.8 °F30.2 °F87 %30.10 in1.5 miWNW (290°)16.1 mph24.2 mph0.01 inSnowLight Snow
6:37 PM33.8 °F30.2 °F87 %30.11 in1.2 miNW (310°)19.6 mph25.3 mph0.02 inSnowLight Snow
6:50 PM32.0 °F30.2 °F93 %30.11 in2.0 miWNW (290°)11.5 mph0.03 inSnowLight Snow
6:51 PM32.0 °F30.0 °F92 %30.13 in2.0 miWNW (290°)10.4 mph0.03 inSnowLight Snow
6:54 PM32.0 °F30.2 °F93 %30.12 in3.0 miWNW (300°)10.4 mph0.00 inSnowLight Snow
7:01 PM33.8 °F30.2 °F87 %30.12 in7.0 miWNW (300°)10.4 mph0.00 inSnowLight Snow
7:20 PM33.8 °F28.4 °F81 %30.14 in10.0 miWNW (300°)15.0 mph24.2 mph0.00 inOvercast
7:53 PM32.0 °F26.1 °F79 %30.17 in10.0 miWNW (300°)13.8 mph0.00 inOvercast
8:03 PM30.2 °F21.2 °F69 %30.17 in10.0 miNW (320°)16.1 mph28.8 mphOvercast
8:23 PM28.4 °F17.6 °F64 %30.18 in10.0 miNW (310°)17.3 mph27.6 mphMostly Cloudy
8:53 PM28.0 °F16.0 °F61 %30.22 in10.0 miNW (310°)15.0 mph25.3 mphPartly Cloudy
9:53 PM25.0 °F12.0 °F58 %30.27 in10.0 miNW (310°)15.0 mphClear
10:53 PM21.9 °F10.9 °F63 %30.31 in10.0 miNNW (330°)13.8 mph19.6 mphClear
11:53 PM19.4 °F6.8 °F58 %30.34 in10.0 miNW (310°)17.3 mph24.2 mphClear
Hourly data recorded from KPAH, located miles away from Brookport, Illinois







STORIES FROM OUR PARTNERS